CZ-3C DEB, 39352

Orbit data source: Space-Track

CZ-3C DEB, 39352 is space debris in HEO originally from a launch on Sun, 31 Oct 2010 UTC launched from the Xichang Space Center, China (XSC). Debris objects in space refer to the collection of defunct objects orbiting the Earth. Examples of debris include non-operational satellites, rocket bodies, and fragments generated from explosions, collisions, or faulty payload assembly.

Loading next visibility...
Identifier
39352, 2010-057S
Orbit
HEO
Country
Flag of CNCN / PRC
Related business
Manufacturer
CALT
Mission
Spacecraft
Bus & Motor
Unknown
Mass
Unknown
Launch date (UTC)
2010-10-31 (16 years ago)
Launch vehicle
Unknown
Launch site
Xichang Space Center, China (XSC)
Object type
Payload
Rocket body
Debris
Shape & HBR
Unknown shape, 0.2 m
Radar Cross Section
Medium (>0.1 m² and <1 m²)

Expand to show TLE details & history
Last TLE update: 1 day ago

TLE from 1 day ago
0 CZ-3C DEB
1 39352U 10057S   26263.67858576  .00000044  00000-0  25423-2 0  9992
2 39352  20.3935 125.0250 7210251  91.3917 355.9664  2.18290487103103
Epoch: 2026-09-20T16:17Z
TLE epoch observation values (Epoch: 2026-09-20T16:17:09.809Z)
Latitude
17.23781°
Longitude
-62.59207°
Altitude
1,137.295 km
Speed
9.498 km/s
True Right ascension
12h 05m 04s
True Declination
17° 08' 44"
Sunlit
Object was in daylight at epoch
Visualization orbit readout
Latitude
Unknown
Longitude
Unknown
Altitude
Unknown
Speed
Unknown
Apparent Right ascension
Unknown
Apparent Declination
Unknown
Sunlit
N/A
Visualization observer readout
Local Sidereal Time
08:58:15
Azimuth
Unknown
Elevation
Unknown
Doppler factor
Unknown
Orbital elements
Apogee altitude
36,830.848 km
Perigee altitude
625.957 km
Semi-major axis
25,106.54 km
Eccentricity
0.72103
Inclination
20.3935°
RAAN
125.025°
Arg. of periapsis
91.3917°
True anomaly
325.8666°
Mean anomaly
355.9664°
Eccentric anomaly
345.90749°
Mean motion
0.54559 °/min
Orbital period
659.84 mins
BSTAR
0.0025423
Loading maneuver chart data...
Computing Atmospheric mass density...
Loading historical data...
Loading historical data...
Loading historical data...
Loading historical data...
Loading historical data...
Loading historical data...
Loading historical data...

Documentation

Showing up to 5 results
|